Flag for Germany Weather past 2 weeks in Hemer, North Rhine-Westphalia, Germany

Now
45 °F

Partly sunny.


Feels Like: 37 °F
Forecast: 33 / 39 °F
Wind: 16 mph from Southwest

Location: Dortmund / Wickede

Current Time: Mar 3, 2015 at 12:58:50 PM

Latest Report: Mar 3, 2015 at 12:20 PM


Visibility: N/A

Pressure: 30.01 "Hg

Humidity: 57%

Dew point: 30 °F

Location of HemerLocation

Historic Weather in Hemer — Graph

°F

Hemer temperature yesterday

Maximum temperature yesterday: 46 °F (at 1:20 PM)
Minimum temperature yesterday: 32 °F (at 10:20 PM)
Average temperature yesterday: 40 °F

Past Weeks' High & Low Weather Summary

 TemperatureHumidityPressure
High52 °F (Mar 1, 12:50 PM)100% (Feb 18, 10:20 AM)30.74 "Hg (Feb 18, 10:20 AM)
Low30 °F (Feb 28, 5:20 AM)42% (Feb 28, 1:50 PM)29.33 "Hg (Feb 21, 5:20 AM)
Average39 °F75%29.93 "Hg
* Reported Feb 16 11:20 AM — Mar 3 11:20 AM, Hemer, Weather by CustomWeather, © 2015

Note: Actual official high and low records may vary slightly from our data, if they occured in-between our weather recording intervals... More about our weather records

Advertising

Hemer weather history for previous 24 hours

 ConditionsComfort  
Time TempWeatherWind HumidityBarometerVisibility
11:20 AM
Tue, Mar 3
43 °FSunny.22 mph66%30.01 "Hg10 mi
10:50 AM41 °FScattered clouds.21 mph70%30.04 "HgN/A
10:20 AM41 °FSunny.18 mph70%30.04 "Hg10 mi
9:50 AM41 °FPartly sunny.17 mph70%30.04 "HgN/A
9:20 AM39 °FScattered clouds.15 mph75%30.04 "HgN/A
8:50 AM37 °FPartly sunny.17 mph75%30.04 "HgN/A
8:20 AM37 °FScattered clouds.16 mph75%30.04 "HgN/A
7:50 AM36 °FScattered clouds.17 mph81%30.04 "HgN/A
7:20 AM36 °FPassing clouds.18 mph81%30.01 "HgN/A
6:50 AM36 °FPassing clouds.16 mph81%30.01 "HgN/A
6:20 AM37 °FPassing clouds.16 mph75%30.01 "HgN/A
5:50 AM36 °FPassing clouds.16 mph81%30.01 "HgN/A
5:20 AM36 °FPassing clouds.16 mph81%30.01 "HgN/A
10:50 PM
Mon, Mar 2
34 °FClear.14 mph87%29.92 "Hg10 mi
10:20 PM32 °FLight mixture of precip. Partly cloudy.14 mph93%29.89 "HgN/A
9:50 PM37 °FScattered showers. Passing clouds.16 mph65%29.86 "HgN/A
9:20 PM37 °FScattered showers. Passing clouds.20 mph65%29.86 "HgN/A
8:50 PM37 °FClear.18 mph70%29.83 "Hg10 mi
8:20 PM36 °FClear.17 mph81%29.80 "Hg10 mi
7:50 PM36 °FClear.15 mph87%29.80 "Hg10 mi
7:20 PM34 °FClear.13 mph87%29.80 "Hg10 mi
6:50 PM36 °FLight rain. Passing clouds.20 mph81%29.80 "HgN/A
6:20 PM37 °FPartly cloudy.16 mph87%29.77 "HgN/A
5:50 PM37 °FPartly sunny.15 mph81%29.74 "HgN/A
5:20 PM36 °FLight rain. Partly sunny.17 mph87%29.71 "Hg3 mi
4:50 PM37 °FSprinkles. Partly sunny.17 mph81%29.71 "HgN/A
4:20 PM41 °FSprinkles. Scattered clouds.16 mph66%29.68 "HgN/A
3:50 PM45 °FScattered showers. Partly sunny.18 mph53%29.65 "HgN/A
3:20 PM46 °FScattered clouds.17 mph50%29.65 "HgN/A
2:50 PM46 °FSunny.18 mph46%29.65 "Hg10 mi
2:20 PM45 °FSunny.23 mph49%29.65 "Hg10 mi
1:50 PM45 °FSunny.21 mph42%29.65 "Hg10 mi
1:20 PM46 °FScattered clouds.21 mph43%29.65 "HgN/A
12:50 PM45 °FPassing clouds.20 mph46%29.65 "HgN/A
12:20 PM45 °FPassing clouds.20 mph46%29.65 "HgN/A
Weather by CustomWeather, © 2015

See weather overviewHow to use our weather pages